User: anonymous   Login
Location: Unspecified
(0.0000°N, 0.0000°E)
Time: 09:52:17
(UTC+00:00)
Language:

USA 186 - Orbit

View from above orbital plane
View from above orbital plane
View from above satellite
View from above satellite

Ground track
Ground track

The orbit data is extracted from the following two-line orbital elements,

1 28888U 05042A   16284.82342756 0.00035000  00000-0  14982-3 0    01
2 28888  96.8723 321.1757 0146296 335.2991  24.7007 15.70569932    04
Epoch (UTC): 10 October 2016 19:45:44
Eccentricity: 0.0146296
inclination: 96.8723°
perigee height: 259 km
apogee height: 456 km
right ascension of ascending node: 321.1757°
argument of perigee: 335.2991°
revolutions per day: 15.70569932
mean anomaly at epoch: 24.7007°
orbit number at epoch: 0

The dashed part of the orbit path shows where the satellite is in the earth's shadow,  

DLR